Regional Weather Roundup
Issued by NWS

Home | Current Version | Previous Version | Graphics & Text | Print | Product List | Glossary On
Versions: 1 2 3 4 5 6 7 8 9 10 11 12 13 14 15 16 17 18 19 20 21 22 23 24 25 26 27 28 29 30 31 32 33 34 35 36 37 38 39 40 41 42 43 44 45 46 47 48 49 50
000
ASUS43 KLSX 210107
RWRMO

WEATHER SUMMARY FOR MISSOURI
NATIONAL WEATHER SERVICE SPRINGFIELD MO
800 PM CDT SUN APR 20 2014

NOTE: "FAIR" INDICATES FEW OR NO CLOUDS BELOW 12,000 FEET WITH NO
       SIGNIFICANT WEATHER AND/OR OBSTRUCTIONS TO VISIBILITY.
       CURRENT SKY AND/OR WEATHER CONDITIONS ARE NOT AVAILABLE FOR
       CHILLICOTHE AND FARMINGTON.

MOZ001>031-035>038-043-044-053-054-210200-
...NORTHERN AND WESTERN MISSOURI...

CITY           SKY/WX    TMP DP  RH WIND       PRES   REMARKS
KANSAS CTY INT CLOUDY    71  53  52 SW16G25   29.99R
KANSAS C DTWN  PTCLDY    72  52  49 S15G24    29.98S
LEE`S SUMMIT   CLOUDY    70  52  52 S8        30.01S
ST JOSEPH      MOCLDY    72  53  51 SW10      29.97R
CHILLICOTHE      N/A     72  50  45 S6        29.99F
KIRKSVILLE     CLOUDY    72  47  40 SW7       30.00F

$$
MOZ066>068-077>081-088>096-101>105-210200-
...SOUTHWEST MISSOURI...

CITY           SKY/WX    TMP DP  RH WIND       PRES   REMARKS
SPRINGFIELD    CLOUDY    70  52  52 S6        30.04F
JOPLIN         CLOUDY    69  53  56 VRB3      30.04F

$$
MOZ032>034-039>042-045>050-055>058-069>072-210200-
...CENTRAL MISSOURI...

CITY           SKY/WX    TMP DP  RH WIND       PRES   REMARKS
COLUMBIA       CLOUDY    70  51  51 SW8       30.02S
JEFFERSON CITY CLOUDY    76  47  35 S6        30.01S
ROLLA          CLOUDY    69  48  47 S6        30.03F
SEDALIA        CLOUDY    72  52  49 S6        30.03S
WHITEMAN AFB   CLOUDY    71  51  48 SW12      30.03R
OSAGE BEACH    CLOUDY    73  46  38 SW3       30.05R

$$
MOZ051-052-059>065-210200-
...EAST CENTRAL MISSOURI...

CITY           SKY/WX    TMP DP  RH WIND       PRES   REMARKS
ST LOUIS INTL  MOCLDY    76  42  29 SE15      30.04S
SPIRIT OF STL  MOCLDY    75  39  27 S3        30.01F
ST CHARLES     PTCLDY    73  44  35 SE10      30.02S

$$
MOZ072>076-082>087-097>100-106>115-210200-
...SOUTH CENTRAL AND SOUTHEAST MISSOURI...

CITY           SKY/WX    TMP DP  RH WIND       PRES   REMARKS
CAPE GIRARDEAU PTCLDY    66  52  60 S6        30.08S
FARMINGTON     CLOUDY    72  43  35 SE9       30.09S
POPLAR BLUFF   MOCLDY    70  51  51 S6        30.06S
WEST PLAINS    MOCLDY    68  46  45 E3        30.08S

$$



USA.gov is the U.S. government's official web portal to all federal, state and local government web resources and services.